This is the latest recevied weather packets stored in our database for station/object K4IR. If no packets are shown the sender has not sent any weather packets the latest 10 day(s).
| Time | Temp. | Humidity | Pressure | Rain* | Wind** | Luminosity | Snow |
|---|---|---|---|---|---|---|---|
| 1788405970 | 25° C | 96% | 1017.6 hPa | 0 mm | - | 0 W/m² | - |
| 1788405366 | 24.44° C | 96% | 1017.6 hPa | 0 mm | - | 0 W/m² | - |
| 1788404762 | 25° C | 96% | 1017.5 hPa | 0 mm | - | 0 W/m² | - |
| 1788404159 | 24.44° C | 96% | 1017.7 hPa | 0 mm | - | 0 W/m² | - |
| 1788403554 | 24.44° C | 96% | 1017.7 hPa | 0 mm | - | 0 W/m² | - |
| 1788402950 | 25° C | 96% | 1018.3 hPa | 0 mm | - | 0 W/m² | - |
| 1788402350 | 25° C | 96% | 1018.6 hPa | 0 mm | - | 0 W/m² | - |
| 1788401750 | 25° C | 96% | 1018.7 hPa | 0 mm | - | 0 W/m² | - |
| 1788401146 | 25° C | 96% | 1019.1 hPa | 0 mm | - | 0 W/m² | - |
| 1788400542 | 25° C | 95% | 1019 hPa | 0 mm | - | 0 W/m² | - |
| 1788399942 | 25° C | 95% | 1018.9 hPa | 0 mm | - | 0 W/m² | - |
| 1788399343 | 25° C | 95% | 1018.9 hPa | 0 mm | - | 0 W/m² | - |
| 1788398742 | 25° C | 95% | 1018.8 hPa | 0 mm | - | 0 W/m² | - |
| 1788398142 | 25.56° C | 94% | 1018.2 hPa | 0 mm | - | 0 W/m² | - |
| 1788397539 | 25.56° C | 94% | 1018.4 hPa | 0 mm | - | 0 W/m² | - |
| 1788396937 | 25.56° C | 94% | 1018.1 hPa | 0 mm | - | 0 W/m² | - |
| 1788396332 | 25.56° C | 93% | 1018.1 hPa | 0 mm | - | 0 W/m² | - |
| 1788395729 | 25.56° C | 93% | 1018.1 hPa | 0 mm | - | 0 W/m² | - |
| 1788395124 | 26.11° C | 92% | 1017.8 hPa | 0 mm | - | 0 W/m² | - |
| 1788394520 | 26.11° C | 91% | 1017.6 hPa | 0 mm | - | 0 W/m² | - |
| 1788393914 | 26.67° C | 91% | 1017.7 hPa | 0 mm | - | 0 W/m² | - |
| 1788393314 | 26.67° C | 90% | 1017.5 hPa | 0 mm | - | 0 W/m² | - |
| 1788392709 | 26.67° C | 89% | 1017.6 hPa | 0 mm | - | 1 W/m² | - |
| 1788392108 | 27.22° C | 87% | 1017.3 hPa | 0 mm | - | 3 W/m² | - |
| 1788391508 | 27.78° C | 86% | 1017.4 hPa | 0 mm | - | 7 W/m² | - |
* Rain latest hour (hover to see other rain measurements)
** Current wind speed in m/s (hover to see current wind gust speed)